Time,TemperatureF,DewpointF,PressureIn,WindDirection,WindDirectionDegrees,WindSpeedMPH,WindSpeedGustMPH,Humidity,HourlyPrecipIn,Conditions,Clouds,dailyrainin,SoftwareType,DateUTC
2013-06-15 00:01:00,76.8,73.2,30.06,SW,225,6.7,6.7,88,0.00,,,0.00,VWS V14.01,2013-06-15 05:01:00,
2013-06-15 00:06:00,76.8,72.8,30.06,West,270,4.9,6.7,88,0.00,,,0.00,VWS V14.01,2013-06-15 05:06:00,
2013-06-15 00:11:00,76.8,72.5,30.06,West,270,5.4,5.4,86,0.00,,,0.00,VWS V14.01,2013-06-15 05:11:00,
2013-06-15 00:16:00,76.8,72.5,30.06,WSW,248,6.3,6.3,86,0.00,,,0.00,VWS V14.01,2013-06-15 05:16:00,
2013-06-15 00:21:00,77.0,72.0,30.06,WSW,248,5.8,7.6,84,0.00,,,0.00,VWS V14.01,2013-06-15 05:21:00,
2013-06-15 00:26:00,76.8,71.4,30.06,WSW,248,3.6,3.6,84,0.00,,,0.00,VWS V14.01,2013-06-15 05:26:00,
2013-06-15 00:31:00,76.8,71.4,30.09,WSW,248,5.4,5.8,84,0.00,,,0.00,VWS V14.01,2013-06-15 05:31:00,
2013-06-15 00:36:00,76.8,71.4,30.09,SW,225,4.9,5.4,84,0.00,,,0.00,VWS V14.01,2013-06-15 05:36:00,
2013-06-15 00:40:00,76.6,71.3,30.09,WSW,248,3.6,3.6,84,0.00,,,0.00,VWS V14.01,2013-06-15 05:40:00,
2013-06-15 00:45:00,76.8,71.1,30.06,WSW,248,6.7,9.6,82,0.00,,,0.00,VWS V14.01,2013-06-15 05:45:00,
2013-06-15 00:50:00,76.8,70.7,30.06,West,270,5.4,5.4,82,0.00,,,0.00,VWS V14.01,2013-06-15 05:50:00,
2013-06-15 00:55:00,76.8,70.4,30.06,WSW,248,7.6,7.6,80,0.00,,,0.00,VWS V14.01,2013-06-15 05:55:00,
2013-06-15 01:00:00,76.8,70.4,30.06,WSW,248,8.1,8.1,80,0.00,,,0.00,VWS V14.01,2013-06-15 06:00:00,
2013-06-15 01:05:00,76.6,70.2,30.06,West,270,8.7,8.7,80,0.00,,,0.00,VWS V14.01,2013-06-15 06:05:00,
2013-06-15 01:10:00,76.6,70.2,30.06,West,270,5.8,8.7,80,0.00,,,0.00,VWS V14.01,2013-06-15 06:10:00,
2013-06-15 01:15:00,76.6,70.2,30.06,WSW,248,8.1,8.1,80,0.00,,,0.00,VWS V14.01,2013-06-15 06:15:00,
2013-06-15 01:20:00,76.5,70.0,30.06,West,270,3.1,8.3,80,0.00,,,0.00,VWS V14.01,2013-06-15 06:20:00,
2013-06-15 01:25:00,76.3,69.8,30.06,West,270,7.6,7.6,80,0.00,,,0.00,VWS V14.01,2013-06-15 06:25:00,
2013-06-15 01:30:00,76.1,69.7,30.06,West,270,7.2,7.2,80,0.00,,,0.00,VWS V14.01,2013-06-15 06:30:00,
2013-06-15 01:35:00,76.1,69.3,30.06,West,270,6.3,6.3,80,0.00,,,0.00,VWS V14.01,2013-06-15 06:35:00,
2013-06-15 01:40:00,76.1,68.9,30.06,WSW,248,8.1,8.1,78,0.00,,,0.00,VWS V14.01,2013-06-15 06:40:00,
2013-06-15 01:45:00,76.3,68.7,30.06,WSW,248,6.3,8.1,78,0.00,,,0.00,VWS V14.01,2013-06-15 06:45:00,
2013-06-15 01:50:00,76.3,68.7,30.06,SW,225,7.2,10.1,78,0.00,,,0.00,VWS V14.01,2013-06-15 06:50:00,
2013-06-15 01:55:00,76.3,68.4,30.06,WSW,248,8.1,12.3,76,0.00,,,0.00,VWS V14.01,2013-06-15 06:55:00,
2013-06-15 02:00:00,76.1,68.2,30.06,SW,225,4.9,7.6,76,0.00,,,0.00,VWS V14.01,2013-06-15 07:00:00,
2013-06-15 02:05:00,75.9,68.0,30.06,West,270,4.9,4.9,76,0.00,,,0.00,VWS V14.01,2013-06-15 07:05:00,
2013-06-15 02:10:00,75.9,68.0,30.06,WSW,248,4.5,4.5,76,0.00,,,0.00,VWS V14.01,2013-06-15 07:10:00,
2013-06-15 02:15:00,75.7,67.8,30.06,SW,225,11.0,11.0,76,0.00,,,0.00,VWS V14.01,2013-06-15 07:15:00,
2013-06-15 02:20:00,75.6,67.7,30.06,West,270,3.1,5.8,76,0.00,,,0.00,VWS V14.01,2013-06-15 07:20:00,
2013-06-15 02:25:00,75.6,67.7,30.06,West,270,5.4,5.4,76,0.00,,,0.00,VWS V14.01,2013-06-15 07:25:00,
2013-06-15 02:30:00,75.2,67.7,30.06,West,270,10.1,10.5,78,0.00,,,0.00,VWS V14.01,2013-06-15 07:30:00,
2013-06-15 02:35:00,75.4,67.9,30.06,WSW,248,8.1,8.1,78,0.00,,,0.00,VWS V14.01,2013-06-15 07:35:00,
2013-06-15 02:40:00,75.2,67.7,30.06,West,270,5.4,10.5,78,0.00,,,0.00,VWS V14.01,2013-06-15 07:40:00,
2013-06-15 02:45:00,75.2,67.3,30.06,WSW,248,4.9,12.3,76,0.00,,,0.00,VWS V14.01,2013-06-15 07:45:00,
2013-06-15 02:50:00,75.2,67.3,30.06,WSW,248,10.5,10.5,76,0.00,,,0.00,VWS V14.01,2013-06-15 07:50:00,
2013-06-15 02:55:00,75.0,67.5,30.06,West,270,4.0,7.2,78,0.00,,,0.00,VWS V14.01,2013-06-15 07:55:00,
2013-06-15 03:00:00,74.8,67.7,30.06,WSW,248,5.4,6.3,78,0.00,,,0.00,VWS V14.01,2013-06-15 08:00:00,
2013-06-15 03:05:00,74.5,67.4,30.06,WSW,248,4.9,6.3,78,0.00,,,0.00,VWS V14.01,2013-06-15 08:05:00,
2013-06-15 03:10:00,74.7,67.5,30.06,West,270,4.0,4.9,78,0.00,,,0.00,VWS V14.01,2013-06-15 08:10:00,
2013-06-15 03:15:00,74.5,67.4,30.06,WSW,248,4.9,6.3,78,0.00,,,0.00,VWS V14.01,2013-06-15 08:15:00,
2013-06-15 03:20:00,74.3,67.2,30.06,WSW,248,3.6,4.9,78,0.00,,,0.00,VWS V14.01,2013-06-15 08:20:00,
2013-06-15 03:25:00,74.3,67.2,30.06,SW,225,5.4,6.3,78,0.00,,,0.00,VWS V14.01,2013-06-15 08:25:00,
2013-06-15 03:30:00,74.5,67.4,30.06,SW,225,4.9,8.7,78,0.00,,,0.00,VWS V14.01,2013-06-15 08:30:00,
2013-06-15 03:35:00,74.1,67.0,30.06,SW,225,4.9,8.1,78,0.00,,,0.00,VWS V14.01,2013-06-15 08:35:00,
2013-06-15 03:40:00,73.9,67.2,30.06,SW,225,3.6,4.9,80,0.00,,,0.00,VWS V14.01,2013-06-15 08:40:00,
2013-06-15 03:45:00,73.8,67.4,30.06,SW,225,3.1,8.1,80,0.00,,,0.00,VWS V14.01,2013-06-15 08:45:00,
2013-06-15 03:50:00,73.4,67.0,30.06,SW,225,6.3,8.1,80,0.00,,,0.00,VWS V14.01,2013-06-15 08:50:00,
2013-06-15 03:55:00,73.6,67.2,30.06,SW,225,4.0,4.0,80,0.00,,,0.00,VWS V14.01,2013-06-15 08:55:00,
2013-06-15 04:00:00,73.4,67.0,30.06,SW,225,7.2,8.3,80,0.00,,,0.00,VWS V14.01,2013-06-15 09:00:00,
2013-06-15 04:05:00,73.2,67.2,30.06,SW,225,6.3,7.6,82,0.00,,,0.00,VWS V14.01,2013-06-15 09:05:00,
2013-06-15 04:10:00,73.0,67.1,30.06,SW,225,4.0,8.3,82,0.00,,,0.00,VWS V14.01,2013-06-15 09:10:00,
2013-06-15 04:15:00,73.0,67.1,30.06,WSW,248,8.1,8.1,82,0.00,,,0.00,VWS V14.01,2013-06-15 09:15:00,
2013-06-15 04:20:00,73.0,67.1,30.06,WSW,248,5.8,8.1,82,0.00,,,0.00,VWS V14.01,2013-06-15 09:20:00,
2013-06-15 04:25:00,73.0,67.1,30.06,SW,225,2.7,7.2,82,0.00,,,0.00,VWS V14.01,2013-06-15 09:25:00,
2013-06-15 04:30:00,72.9,66.9,30.06,West,270,3.1,3.6,82,0.00,,,0.00,VWS V14.01,2013-06-15 09:30:00,
2013-06-15 04:35:00,72.7,67.1,30.06,SW,225,4.0,6.7,82,0.00,,,0.00,VWS V14.01,2013-06-15 09:35:00,
2013-06-15 04:40:00,72.5,66.9,30.06,WSW,248,8.3,8.3,82,0.00,,,0.00,VWS V14.01,2013-06-15 09:40:00,
2013-06-15 04:45:00,72.3,66.7,30.06,WSW,248,4.9,4.9,82,0.00,,,0.00,VWS V14.01,2013-06-15 09:45:00,
2013-06-15 04:50:00,72.3,66.7,30.06,SW,225,4.0,9.6,82,0.00,,,0.00,VWS V14.01,2013-06-15 09:50:00,
2013-06-15 04:55:00,72.3,66.7,30.06,SW,225,4.5,7.2,82,0.00,,,0.00,VWS V14.01,2013-06-15 09:55:00,
2013-06-15 05:00:00,72.3,66.7,30.06,SW,225,2.7,8.3,82,0.00,,,0.00,VWS V14.01,2013-06-15 10:00:00,
2013-06-15 05:05:00,72.3,66.7,30.06,SW,225,0.0,3.1,82,0.00,,,0.00,VWS V14.01,2013-06-15 10:05:00,
2013-06-15 05:10:00,72.3,66.7,30.06,SW,225,2.7,3.1,82,0.00,,,0.00,VWS V14.01,2013-06-15 10:10:00,
2013-06-15 05:15:00,72.3,66.7,30.06,SW,225,4.0,5.4,82,0.00,,,0.00,VWS V14.01,2013-06-15 10:15:00,
2013-06-15 05:20:00,72.5,66.9,30.06,West,270,4.5,4.9,82,0.00,,,0.00,VWS V14.01,2013-06-15 10:20:00,
2013-06-15 05:25:00,72.3,66.7,30.06,WSW,248,3.1,3.1,82,0.00,,,0.00,VWS V14.01,2013-06-15 10:25:00,
2013-06-15 05:30:00,72.3,66.7,30.06,SW,225,3.6,3.6,82,0.00,,,0.00,VWS V14.01,2013-06-15 10:30:00,
2013-06-15 05:35:00,72.3,66.7,30.06,SW,225,2.7,3.1,82,0.00,,,0.00,VWS V14.01,2013-06-15 10:35:00,
2013-06-15 05:40:00,72.1,66.5,30.06,SW,225,3.6,4.0,82,0.00,,,0.00,VWS V14.01,2013-06-15 10:40:00,
2013-06-15 05:45:00,72.1,66.5,30.06,SW,225,4.0,4.0,82,0.00,,,0.00,VWS V14.01,2013-06-15 10:45:00,
2013-06-15 05:50:00,72.1,66.5,30.06,West,270,3.1,3.6,82,0.00,,,0.00,VWS V14.01,2013-06-15 10:50:00,
2013-06-15 05:55:00,72.0,66.3,30.06,West,270,3.1,3.1,82,0.00,,,0.00,VWS V14.01,2013-06-15 10:55:00,
2013-06-15 06:00:00,71.8,66.2,30.06,West,270,3.1,3.1,82,0.00,,,0.00,VWS V14.01,2013-06-15 11:00:00,
2013-06-15 06:05:00,71.8,66.5,30.06,SW,225,6.3,6.3,84,0.00,,,0.00,VWS V14.01,2013-06-15 11:05:00,
2013-06-15 06:10:00,71.8,66.5,30.06,SW,225,6.3,6.3,84,0.00,,,0.00,VWS V14.01,2013-06-15 11:10:00,
2013-06-15 06:15:00,71.6,66.3,30.09,SW,225,4.0,6.3,84,0.00,,,0.00,VWS V14.01,2013-06-15 11:15:00,
2013-06-15 06:20:00,71.6,66.3,30.09,SW,225,0.0,2.7,84,0.00,,,0.00,VWS V14.01,2013-06-15 11:20:00,
2013-06-15 06:25:00,71.6,66.0,30.09,SW,225,0.0,2.2,82,0.00,,,0.00,VWS V14.01,2013-06-15 11:25:00,
2013-06-15 06:30:00,71.6,66.3,30.09,SW,225,0.0,0.0,84,0.00,,,0.00,VWS V14.01,2013-06-15 11:30:00,
2013-06-15 06:35:00,71.4,66.5,30.09,SW,225,0.0,0.0,84,0.00,,,0.00,VWS V14.01,2013-06-15 11:35:00,
2013-06-15 06:40:00,71.4,66.5,30.09,SW,225,2.7,2.7,84,0.00,,,0.00,VWS V14.01,2013-06-15 11:40:00,
2013-06-15 06:45:00,71.4,66.5,30.09,SW,225,0.0,0.0,84,0.00,,,0.00,VWS V14.01,2013-06-15 11:45:00,
2013-06-15 06:50:00,71.2,66.7,30.09,SW,225,0.0,0.0,86,0.00,,,0.00,VWS V14.01,2013-06-15 11:50:00,
2013-06-15 06:55:00,71.2,66.3,30.09,WSW,248,0.0,0.0,84,0.00,,,0.00,VWS V14.01,2013-06-15 11:55:00,
2013-06-15 07:00:00,71.2,66.7,30.09,WSW,248,0.0,0.0,86,0.00,,,0.00,VWS V14.01,2013-06-15 12:00:00,
2013-06-15 07:05:00,71.2,67.0,30.09,WSW,248,0.0,0.0,86,0.00,,,0.00,VWS V14.01,2013-06-15 12:05:00,
2013-06-15 07:10:00,71.2,67.0,30.09,WSW,248,0.0,0.0,86,0.00,,,0.00,VWS V14.01,2013-06-15 12:10:00,
2013-06-15 07:15:00,71.4,67.5,30.06,SW,225,0.0,0.0,88,0.00,,,0.00,VWS V14.01,2013-06-15 12:15:00,
2013-06-15 07:20:00,71.6,68.0,30.06,SW,225,0.0,0.0,88,0.00,,,0.00,VWS V14.01,2013-06-15 12:20:00,
2013-06-15 07:25:00,72.3,68.4,30.06,SW,225,0.0,0.0,88,0.00,,,0.00,VWS V14.01,2013-06-15 12:25:00,
2013-06-15 07:30:00,73.0,68.4,30.09,SW,225,0.0,0.0,86,0.00,,,0.00,VWS V14.01,2013-06-15 12:30:00,
2013-06-15 07:35:00,73.0,67.4,30.09,SW,225,2.7,2.7,82,0.00,,,0.00,VWS V14.01,2013-06-15 12:35:00,
2013-06-15 07:40:00,73.9,67.6,30.09,WSW,248,3.6,3.6,80,0.00,,,0.00,VWS V14.01,2013-06-15 12:40:00,
2013-06-15 07:45:00,74.8,67.7,30.09,WSW,248,8.7,8.7,78,0.00,,,0.00,VWS V14.01,2013-06-15 12:45:00,
2013-06-15 07:50:00,75.0,67.5,30.09,SW,225,3.6,3.6,78,0.00,,,0.00,VWS V14.01,2013-06-15 12:50:00,
2013-06-15 07:55:00,75.7,67.8,30.09,West,270,2.7,3.1,76,0.00,,,0.00,VWS V14.01,2013-06-15 12:55:00,
2013-06-15 08:00:00,76.6,68.3,30.09,West,270,0.0,0.0,76,0.00,,,0.00,VWS V14.01,2013-06-15 13:00:00,
2013-06-15 08:05:00,76.3,66.8,30.09,West,270,0.0,0.0,72,0.00,,,0.00,VWS V14.01,2013-06-15 13:05:00,
2013-06-15 08:10:00,76.1,67.4,30.09,West,270,4.9,4.9,74,0.00,,,0.00,VWS V14.01,2013-06-15 13:10:00,
2013-06-15 08:15:00,76.5,67.4,30.09,West,270,3.1,3.1,74,0.00,,,0.00,VWS V14.01,2013-06-15 13:15:00,
2013-06-15 08:20:00,77.2,67.3,30.09,West,270,2.7,2.7,72,0.00,,,0.00,VWS V14.01,2013-06-15 13:20:00,
2013-06-15 08:25:00,77.5,67.2,30.09,West,270,4.9,4.9,70,0.00,,,0.00,VWS V14.01,2013-06-15 13:25:00,
2013-06-15 08:30:00,77.7,67.4,30.09,West,270,2.7,2.7,70,0.00,,,0.00,VWS V14.01,2013-06-15 13:30:00,
2013-06-15 08:35:00,77.0,66.3,30.09,WNW,292,2.7,3.6,70,0.00,,,0.00,VWS V14.01,2013-06-15 13:35:00,
2013-06-15 08:40:00,77.4,67.0,30.09,NW,315,2.7,2.7,70,0.00,,,0.00,VWS V14.01,2013-06-15 13:40:00,
2013-06-15 08:45:00,76.8,66.9,30.09,NW,315,2.7,2.7,72,0.00,,,0.00,VWS V14.01,2013-06-15 13:45:00,
2013-06-15 08:50:00,77.2,67.3,30.09,NW,315,2.7,2.7,72,0.00,,,0.00,VWS V14.01,2013-06-15 13:50:00,
2013-06-15 08:55:00,77.5,67.2,30.09,WSW,248,3.1,3.6,70,0.00,,,0.00,VWS V14.01,2013-06-15 13:55:00,
2013-06-15 09:00:00,78.6,68.2,30.12,West,270,0.0,2.2,70,0.00,,,0.00,VWS V14.01,2013-06-15 14:00:00,
2013-06-15 09:05:00,78.4,67.6,30.12,WNW,292,3.1,3.1,70,0.00,,,0.00,VWS V14.01,2013-06-15 14:05:00,
2013-06-15 09:10:00,77.5,66.8,30.12,SW,225,4.0,4.0,70,0.00,,,0.00,VWS V14.01,2013-06-15 14:10:00,
2013-06-15 09:15:00,78.4,67.6,30.12,NW,315,2.2,4.0,70,0.00,,,0.00,VWS V14.01,2013-06-15 14:15:00,
2013-06-15 09:20:00,79.2,67.9,30.12,NW,315,5.4,5.4,68,0.00,,,0.00,VWS V14.01,2013-06-15 14:20:00,
2013-06-15 09:25:00,80.6,68.4,30.12,NW,315,4.0,7.2,66,0.00,,,0.00,VWS V14.01,2013-06-15 14:25:00,
2013-06-15 09:30:00,80.4,68.2,30.09,WSW,248,3.1,3.1,66,0.00,,,0.00,VWS V14.01,2013-06-15 14:30:00,
2013-06-15 09:35:00,81.0,67.9,30.09,NW,315,5.4,5.4,64,0.00,,,0.00,VWS V14.01,2013-06-15 14:35:00,
2013-06-15 09:40:00,81.1,68.0,30.09,NW,315,7.6,7.6,64,0.00,,,0.00,VWS V14.01,2013-06-15 14:40:00,
2013-06-15 09:45:00,81.0,67.4,30.12,WNW,292,3.1,3.1,64,0.00,,,0.00,VWS V14.01,2013-06-15 14:45:00,
2013-06-15 09:50:00,81.0,67.0,30.12,NW,315,3.6,3.6,62,0.00,,,0.00,VWS V14.01,2013-06-15 14:50:00,
2013-06-15 09:55:00,82.2,68.6,30.12,NW,315,3.6,5.4,64,0.00,,,0.00,VWS V14.01,2013-06-15 14:55:00,
2013-06-15 10:00:00,82.6,68.0,30.12,NW,315,4.0,6.3,62,0.00,,,0.00,VWS V14.01,2013-06-15 15:00:00,
2013-06-15 10:05:00,82.6,68.0,30.12,WSW,248,3.1,3.1,62,0.00,,,0.00,VWS V14.01,2013-06-15 15:05:00,
2013-06-15 10:10:00,82.9,67.9,30.12,WSW,248,4.5,7.2,60,0.00,,,0.00,VWS V14.01,2013-06-15 15:10:00,
2013-06-15 10:15:00,83.5,68.4,30.09,West,270,3.6,3.6,60,0.00,,,0.00,VWS V14.01,2013-06-15 15:15:00,
2013-06-15 10:20:00,83.8,67.8,30.09,WNW,292,4.0,4.9,58,0.00,,,0.00,VWS V14.01,2013-06-15 15:20:00,
2013-06-15 10:25:00,82.8,66.7,30.09,WNW,292,6.3,7.6,58,0.00,,,0.00,VWS V14.01,2013-06-15 15:25:00,
2013-06-15 10:30:00,83.3,68.2,30.12,WNW,292,2.2,4.0,60,0.00,,,0.00,VWS V14.01,2013-06-15 15:30:00,
2013-06-15 10:35:00,82.4,67.8,30.12,WSW,248,7.6,8.3,62,0.00,,,0.00,VWS V14.01,2013-06-15 15:35:00,
2013-06-15 10:40:00,83.5,68.4,30.12,WSW,248,8.3,9.6,60,0.00,,,0.00,VWS V14.01,2013-06-15 15:40:00,
2013-06-15 10:45:00,84.2,68.1,30.12,NNW,338,4.0,4.0,58,0.00,,,0.00,VWS V14.01,2013-06-15 15:45:00,
2013-06-15 10:50:00,84.6,68.9,30.12,West,270,7.6,7.6,60,0.00,,,0.00,VWS V14.01,2013-06-15 15:50:00,
2013-06-15 10:55:00,83.8,68.7,30.12,NNW,338,3.6,3.6,60,0.00,,,0.00,VWS V14.01,2013-06-15 15:55:00,
2013-06-15 11:00:00,84.4,68.8,30.12,West,270,7.2,7.2,60,0.00,,,0.00,VWS V14.01,2013-06-15 16:00:00,
2013-06-15 11:05:00,83.8,68.7,30.12,West,270,7.2,7.2,60,0.00,,,0.00,VWS V14.01,2013-06-15 16:05:00,
2013-06-15 11:10:00,84.0,69.4,30.12,NW,315,7.2,7.2,62,0.00,,,0.00,VWS V14.01,2013-06-15 16:10:00,
2013-06-15 11:15:00,84.7,69.6,30.12,West,270,3.1,3.1,60,0.00,,,0.00,VWS V14.01,2013-06-15 16:15:00,
2013-06-15 11:19:00,84.7,69.1,30.12,West,270,5.4,5.4,60,0.00,,,0.00,VWS V14.01,2013-06-15 16:19:00,
2013-06-15 11:24:00,85.3,69.6,30.12,NW,315,2.7,4.9,60,0.00,,,0.00,VWS V14.01,2013-06-15 16:24:00,
2013-06-15 11:29:00,84.2,67.6,30.12,West,270,3.6,10.1,58,0.00,,,0.00,VWS V14.01,2013-06-15 16:29:00,
2013-06-15 11:34:00,84.4,68.2,30.12,NW,315,8.3,8.3,58,0.00,,,0.00,VWS V14.01,2013-06-15 16:34:00,
2013-06-15 11:39:00,84.7,69.1,30.12,NW,315,3.1,5.4,60,0.00,,,0.00,VWS V14.01,2013-06-15 16:39:00,
2013-06-15 11:44:00,85.5,68.8,30.12,NW,315,3.6,3.6,58,0.00,,,0.00,VWS V14.01,2013-06-15 16:44:00,
2013-06-15 11:49:00,86.0,69.8,30.12,West,270,5.4,5.4,58,0.00,,,0.00,VWS V14.01,2013-06-15 16:49:00,
2013-06-15 11:54:00,87.3,69.9,30.12,North,0,6.7,8.7,56,0.00,,,0.00,VWS V14.01,2013-06-15 16:54:00,
2013-06-15 11:59:00,85.6,68.9,30.09,WSW,248,2.7,6.7,58,0.00,,,0.00,VWS V14.01,2013-06-15 16:59:00,
2013-06-15 12:04:00,86.9,69.1,30.09,West,270,3.6,8.1,56,0.00,,,0.00,VWS V14.01,2013-06-15 17:04:00,
2013-06-15 12:09:00,86.2,67.9,30.09,NW,315,7.2,8.7,54,0.00,,,0.00,VWS V14.01,2013-06-15 17:09:00,
2013-06-15 12:14:00,86.4,69.6,30.09,SW,225,7.6,7.6,58,0.00,,,0.00,VWS V14.01,2013-06-15 17:14:00,
2013-06-15 12:19:00,85.6,68.9,30.09,SW,225,7.6,7.6,58,0.00,,,0.00,VWS V14.01,2013-06-15 17:19:00,
2013-06-15 12:24:00,86.4,70.1,30.09,West,270,5.4,7.2,58,0.00,,,0.00,VWS V14.01,2013-06-15 17:24:00,
2013-06-15 12:29:00,86.7,69.9,30.09,NW,315,5.4,5.4,58,0.00,,,0.00,VWS V14.01,2013-06-15 17:29:00,
2013-06-15 12:34:00,87.3,69.4,30.09,NW,315,4.0,8.7,56,0.00,,,0.00,VWS V14.01,2013-06-15 17:34:00,
2013-06-15 12:39:00,86.9,70.1,30.09,WSW,248,5.4,8.3,58,0.00,,,0.00,VWS V14.01,2013-06-15 17:39:00,
2013-06-15 12:44:00,86.7,69.4,30.06,West,270,5.8,10.1,56,0.00,,,0.00,VWS V14.01,2013-06-15 17:44:00,
2013-06-15 12:49:00,86.7,69.4,30.06,NW,315,5.8,5.8,56,0.00,,,0.00,VWS V14.01,2013-06-15 17:49:00,
2013-06-15 12:54:00,86.7,69.4,30.06,WNW,292,6.3,8.3,56,0.00,,,0.00,VWS V14.01,2013-06-15 17:54:00,
2013-06-15 12:59:00,87.3,69.4,30.06,WSW,248,9.2,9.2,56,0.00,,,0.00,VWS V14.01,2013-06-15 17:59:00,
2013-06-15 13:04:00,86.7,69.4,30.06,NW,315,3.1,7.6,56,0.00,,,0.00,VWS V14.01,2013-06-15 18:04:00,
2013-06-15 13:09:00,87.8,69.9,30.06,NW,315,5.4,6.3,56,0.00,,,0.00,VWS V14.01,2013-06-15 18:09:00,
2013-06-15 13:14:00,87.4,70.1,30.09,WNW,292,7.2,7.2,56,0.00,,,0.00,VWS V14.01,2013-06-15 18:14:00,
2013-06-15 13:19:00,87.4,69.6,30.09,NW,315,3.6,6.3,56,0.00,,,0.00,VWS V14.01,2013-06-15 18:19:00,
2013-06-15 13:24:00,87.8,69.9,30.09,West,270,3.1,8.1,56,0.00,,,0.00,VWS V14.01,2013-06-15 18:24:00,
2013-06-15 13:29:00,88.2,70.2,30.06,North,0,8.3,8.3,56,0.00,,,0.00,VWS V14.01,2013-06-15 18:29:00,
2013-06-15 13:34:00,88.9,70.4,30.06,North,0,10.1,11.0,54,0.00,,,0.00,VWS V14.01,2013-06-15 18:34:00,
2013-06-15 13:39:00,88.3,70.4,30.06,West,270,4.9,8.1,56,0.00,,,0.00,VWS V14.01,2013-06-15 18:39:00,
2013-06-15 13:44:00,90.1,72.1,30.06,NW,315,2.7,2.7,56,0.00,,,0.00,VWS V14.01,2013-06-15 18:44:00,
2013-06-15 13:49:00,89.1,71.1,30.06,NW,315,0.0,0.0,56,0.00,,,0.00,VWS V14.01,2013-06-15 18:49:00,
2013-06-15 13:54:00,88.3,69.9,30.06,NW,315,7.2,10.1,54,0.00,,,0.00,VWS V14.01,2013-06-15 18:54:00,
2013-06-15 13:59:00,87.6,70.8,30.06,NW,315,4.0,4.9,58,0.00,,,0.00,VWS V14.01,2013-06-15 18:59:00,
2013-06-15 14:04:00,87.8,71.9,30.06,NW,315,4.0,6.3,60,0.00,,,0.00,VWS V14.01,2013-06-15 19:04:00,
2013-06-15 14:09:00,87.8,70.9,30.06,WSW,248,2.7,9.6,58,0.00,,,0.00,VWS V14.01,2013-06-15 19:09:00,
2013-06-15 14:14:00,89.1,72.1,30.06,NW,315,8.3,8.7,58,0.00,,,0.00,VWS V14.01,2013-06-15 19:14:00,
2013-06-15 14:19:00,88.0,70.6,30.06,North,0,6.3,8.3,56,0.00,,,0.00,VWS V14.01,2013-06-15 19:19:00,
2013-06-15 14:24:00,87.8,71.4,30.06,NE,45,8.1,10.1,58,0.00,,,0.00,VWS V14.01,2013-06-15 19:24:00,
2013-06-15 14:29:00,87.6,70.8,30.06,NW,315,10.1,10.1,58,0.00,,,0.00,VWS V14.01,2013-06-15 19:29:00,
2013-06-15 14:34:00,87.1,70.8,30.06,NW,315,5.8,8.1,58,0.00,,,0.00,VWS V14.01,2013-06-15 19:34:00,
2013-06-15 14:39:00,86.5,70.8,30.06,NNW,338,3.6,10.5,60,0.00,,,0.00,VWS V14.01,2013-06-15 19:39:00,
2013-06-15 14:44:00,86.5,71.7,30.06,NW,315,8.7,8.7,62,0.00,,,0.00,VWS V14.01,2013-06-15 19:44:00,
2013-06-15 14:49:00,85.6,70.9,30.06,West,270,7.6,7.6,62,0.00,,,0.00,VWS V14.01,2013-06-15 19:49:00,
2013-06-15 14:54:00,86.0,71.7,30.06,North,0,2.2,2.2,62,0.00,,,0.00,VWS V14.01,2013-06-15 19:54:00,
2013-06-15 14:59:00,85.8,71.5,30.06,NNW,338,4.9,4.9,62,0.00,,,0.00,VWS V14.01,2013-06-15 19:59:00,
2013-06-15 15:04:00,86.2,70.4,30.06,NE,45,4.0,12.8,60,0.00,,,0.00,VWS V14.01,2013-06-15 20:04:00,
2013-06-15 15:09:00,86.0,70.8,30.06,NW,315,7.2,7.2,60,0.00,,,0.00,VWS V14.01,2013-06-15 20:09:00,
2013-06-15 15:14:00,86.4,71.6,30.03,NNW,338,9.6,9.6,62,0.00,,,0.00,VWS V14.01,2013-06-15 20:14:00,
2013-06-15 15:19:00,85.5,70.7,30.03,WNW,292,10.1,11.0,62,0.00,,,0.00,VWS V14.01,2013-06-15 20:19:00,
2013-06-15 15:24:00,85.5,71.2,30.03,NW,315,8.7,8.7,62,0.00,,,0.00,VWS V14.01,2013-06-15 20:24:00,
2013-06-15 15:29:00,85.3,71.0,30.06,NNW,338,11.9,11.9,62,0.00,,,0.00,VWS V14.01,2013-06-15 20:29:00,
2013-06-15 15:34:00,85.1,71.3,30.06,North,0,11.0,11.0,64,0.00,,,0.00,VWS V14.01,2013-06-15 20:34:00,
2013-06-15 15:39:00,84.9,71.6,30.06,North,0,9.2,10.5,64,0.00,,,0.00,VWS V14.01,2013-06-15 20:39:00,
2013-06-15 15:44:00,85.3,72.0,30.06,NW,315,8.3,8.3,64,0.00,,,0.00,VWS V14.01,2013-06-15 20:44:00,
2013-06-15 15:49:00,85.6,72.8,30.06,WNW,292,7.2,8.1,66,0.00,,,0.00,VWS V14.01,2013-06-15 20:49:00,
2013-06-15 15:54:00,85.3,72.0,30.06,NNW,338,6.3,9.6,64,0.00,,,0.00,VWS V14.01,2013-06-15 20:54:00,
2013-06-15 15:59:00,85.8,73.4,30.06,NW,315,3.6,4.9,66,0.00,,,0.00,VWS V14.01,2013-06-15 20:59:00,
2013-06-15 16:04:00,86.0,73.1,30.06,NE,45,5.4,5.4,66,0.00,,,0.00,VWS V14.01,2013-06-15 21:04:00,
2013-06-15 16:09:00,85.8,72.9,30.06,North,0,3.6,6.7,66,0.00,,,0.00,VWS V14.01,2013-06-15 21:09:00,
2013-06-15 16:14:00,85.5,72.1,30.06,NW,315,5.4,5.4,64,0.00,,,0.00,VWS V14.01,2013-06-15 21:14:00,
2013-06-15 16:19:00,85.1,72.7,30.06,NW,315,0.0,0.0,66,0.00,,,0.00,VWS V14.01,2013-06-15 21:19:00,
2013-06-15 16:24:00,84.7,72.3,30.06,North,0,0.0,0.0,66,0.00,,,0.00,VWS V14.01,2013-06-15 21:24:00,
2013-06-15 16:29:00,84.9,72.5,30.06,NW,315,4.9,4.9,66,0.00,,,0.00,VWS V14.01,2013-06-15 21:29:00,
2013-06-15 16:34:00,84.9,72.5,30.06,NE,45,5.8,5.8,66,0.00,,,0.00,VWS V14.01,2013-06-15 21:34:00,
2013-06-15 16:39:00,84.4,72.0,30.06,NE,45,2.7,4.9,66,0.00,,,0.00,VWS V14.01,2013-06-15 21:39:00,
2013-06-15 16:44:00,84.0,72.6,30.06,NE,45,0.0,0.0,68,0.00,,,0.00,VWS V14.01,2013-06-15 21:44:00,
2013-06-15 16:49:00,82.9,71.5,30.06,NE,45,5.4,5.4,68,0.00,,,0.00,VWS V14.01,2013-06-15 21:49:00,
2013-06-15 16:54:00,82.0,71.1,30.06,NE,45,7.6,7.6,70,0.00,,,0.00,VWS V14.01,2013-06-15 21:54:00,
2013-06-15 16:59:00,81.9,71.3,30.06,NE,45,7.2,7.2,70,0.00,,,0.00,VWS V14.01,2013-06-15 21:59:00,
2013-06-15 17:04:00,81.5,70.6,30.06,NE,45,4.5,5.4,70,0.00,,,0.00,VWS V14.01,2013-06-15 22:04:00,
2013-06-15 17:09:00,81.5,70.6,30.06,NE,45,5.4,5.4,70,0.00,,,0.00,VWS V14.01,2013-06-15 22:09:00,
2013-06-15 17:14:00,81.3,70.4,30.06,NE,45,0.0,6.3,70,0.00,,,0.00,VWS V14.01,2013-06-15 22:14:00,
2013-06-15 17:19:00,81.0,70.5,30.06,NE,45,4.5,4.5,70,0.00,,,0.00,VWS V14.01,2013-06-15 22:19:00,
2013-06-15 17:24:00,80.8,70.3,30.06,NE,45,5.8,6.7,70,0.00,,,0.00,VWS V14.01,2013-06-15 22:24:00,
2013-06-15 17:29:00,80.4,70.4,30.06,NE,45,4.5,5.4,72,0.00,,,0.00,VWS V14.01,2013-06-15 22:29:00,
2013-06-15 17:34:00,80.2,70.6,30.06,NE,45,5.8,6.3,72,0.00,,,0.00,VWS V14.01,2013-06-15 22:34:00,
2013-06-15 17:39:00,79.7,70.1,30.06,NE,45,5.8,5.8,72,0.00,,,0.00,VWS V14.01,2013-06-15 22:39:00,
2013-06-15 17:44:00,79.3,69.7,30.06,NE,45,9.6,10.1,72,0.00,,,0.00,VWS V14.01,2013-06-15 22:44:00,
2013-06-15 17:49:00,79.3,69.7,30.06,NE,45,4.9,5.8,72,0.00,,,0.00,VWS V14.01,2013-06-15 22:49:00,
2013-06-15 17:54:00,79.0,69.8,30.06,NE,45,4.9,4.9,74,0.00,,,0.00,VWS V14.01,2013-06-15 22:54:00,
2013-06-15 17:59:00,78.4,70.4,30.09,NE,45,7.6,7.6,76,0.00,,,0.00,VWS V14.01,2013-06-15 22:59:00,
2013-06-15 18:04:00,77.7,70.5,30.09,NE,45,11.0,11.0,78,0.00,,,0.00,VWS V14.01,2013-06-15 23:04:00,
2013-06-15 18:09:00,77.0,70.6,30.09,ENE,68,4.9,7.2,80,0.00,,,0.00,VWS V14.01,2013-06-15 23:09:00,
2013-06-15 18:14:00,76.6,70.6,30.09,NE,45,5.4,7.6,82,0.00,,,0.00,VWS V14.01,2013-06-15 23:14:00,
2013-06-15 18:19:00,76.1,70.4,30.09,NE,45,8.1,14.5,82,0.00,,,0.00,VWS V14.01,2013-06-15 23:19:00,
2013-06-15 18:24:00,75.6,69.9,30.09,NE,45,5.4,5.8,82,0.00,,,0.00,VWS V14.01,2013-06-15 23:24:00,
2013-06-15 18:29:00,75.2,69.2,30.09,NE,45,7.6,7.6,82,0.00,,,0.00,VWS V14.01,2013-06-15 23:29:00,
2013-06-15 18:34:00,74.8,69.2,30.09,NE,45,8.7,8.7,82,0.00,,,0.00,VWS V14.01,2013-06-15 23:34:00,
2013-06-15 18:39:00,74.5,69.2,30.09,NE,45,8.7,8.7,84,0.00,,,0.00,VWS V14.01,2013-06-15 23:39:00,
2013-06-15 18:44:00,74.1,69.2,30.06,NE,45,8.1,8.3,84,0.00,,,0.00,VWS V14.01,2013-06-15 23:44:00,
2013-06-15 18:49:00,73.9,69.0,30.06,ENE,68,7.6,7.6,84,0.00,,,0.00,VWS V14.01,2013-06-15 23:49:00,
2013-06-15 18:54:00,73.8,69.5,30.06,NE,45,0.0,3.6,86,0.00,,,0.00,VWS V14.01,2013-06-15 23:54:00,
2013-06-15 18:59:00,73.6,69.3,30.06,South,180,4.0,4.0,86,0.00,,,0.00,VWS V14.01,2013-06-15 23:59:00,
2013-06-15 19:04:00,73.6,69.6,30.06,South,180,10.1,10.1,88,0.00,,,0.00,VWS V14.01,2013-06-16 00:04:00,
2013-06-15 19:09:00,73.6,69.6,30.06,East,90,4.0,4.9,88,0.00,,,0.00,VWS V14.01,2013-06-16 00:09:00,
2013-06-15 19:14:00,73.6,69.6,30.09,SE,135,0.0,9.2,88,0.00,,,0.00,VWS V14.01,2013-06-16 00:14:00,
2013-06-15 19:19:00,73.6,70.0,30.09,SE,135,5.8,5.8,88,0.00,,,0.00,VWS V14.01,2013-06-16 00:19:00,
2013-06-15 19:24:00,73.6,70.0,30.09,SE,135,4.0,4.0,88,0.00,,,0.00,VWS V14.01,2013-06-16 00:24:00,
2013-06-15 19:29:00,73.4,70.1,30.12,SE,135,0.0,0.0,90,0.00,,,0.00,VWS V14.01,2013-06-16 00:29:00,
2013-06-15 19:34:00,73.4,70.1,30.12,NE,45,4.9,5.4,90,0.00,,,0.00,VWS V14.01,2013-06-16 00:34:00,
2013-06-15 19:39:00,73.0,70.1,30.12,NE,45,6.7,8.3,90,0.00,,,0.00,VWS V14.01,2013-06-16 00:39:00,
2013-06-15 19:44:00,72.9,70.2,30.15,NE,45,11.0,11.0,92,0.00,,,0.00,VWS V14.01,2013-06-16 00:44:00,
2013-06-15 19:49:00,72.1,70.2,30.15,NE,45,8.1,8.1,94,0.00,,,0.00,VWS V14.01,2013-06-16 00:49:00,
2013-06-15 19:54:00,70.0,68.0,30.15,NE,45,4.0,8.1,94,0.00,,,0.00,VWS V14.01,2013-06-16 00:54:00,
2013-06-15 19:59:00,69.3,67.6,30.12,ENE,68,3.1,3.1,94,0.00,,,0.00,VWS V14.01,2013-06-16 00:59:00,
2013-06-15 20:04:00,68.9,67.3,30.12,East,90,0.0,0.0,94,0.00,,,0.00,VWS V14.01,2013-06-16 01:04:00,
2013-06-15 20:09:00,69.4,68.1,30.12,East,90,0.0,0.0,96,0.00,,,0.00,VWS V14.01,2013-06-16 01:09:00,
2013-06-15 20:14:00,69.4,68.1,30.12,SSE,158,3.6,3.6,96,0.00,,,0.00,VWS V14.01,2013-06-16 01:14:00,
2013-06-15 20:19:00,69.4,68.1,30.12,SSE,158,3.6,3.6,96,0.00,,,0.00,VWS V14.01,2013-06-16 01:19:00,
2013-06-15 20:24:00,69.4,68.1,30.12,South,180,0.0,0.0,96,0.00,,,0.00,VWS V14.01,2013-06-16 01:24:00,
2013-06-15 20:29:00,69.4,67.8,30.12,SW,225,4.0,4.0,94,0.00,,,0.00,VWS V14.01,2013-06-16 01:29:00,
2013-06-15 20:34:00,70.0,68.3,30.12,West,270,4.0,4.5,94,0.00,,,0.00,VWS V14.01,2013-06-16 01:34:00,
2013-06-15 20:39:00,70.2,68.2,30.12,WSW,248,6.3,6.3,94,0.00,,,0.00,VWS V14.01,2013-06-16 01:39:00,
2013-06-15 20:44:00,70.0,68.0,30.09,South,180,4.9,6.3,94,0.00,,,0.00,VWS V14.01,2013-06-16 01:44:00,
2013-06-15 20:49:00,70.2,68.2,30.09,WSW,248,4.9,5.4,94,0.00,,,0.00,VWS V14.01,2013-06-16 01:49:00,
2013-06-15 20:54:00,70.0,67.7,30.09,SW,225,7.6,8.1,92,0.00,,,0.00,VWS V14.01,2013-06-16 01:54:00,
2013-06-15 20:59:00,69.8,67.5,30.06,SW,225,6.3,6.3,92,0.00,,,0.00,VWS V14.01,2013-06-16 01:59:00,
2013-06-15 21:04:00,69.4,67.5,30.06,SW,225,9.6,9.6,94,0.00,,,0.00,VWS V14.01,2013-06-16 02:04:00,
2013-06-15 21:09:00,69.4,67.5,30.06,SW,225,5.8,5.8,94,0.00,,,0.00,VWS V14.01,2013-06-16 02:09:00,
2013-06-15 21:14:00,69.4,67.5,30.06,WSW,248,8.7,8.7,94,0.00,,,0.00,VWS V14.01,2013-06-16 02:14:00,
2013-06-15 21:19:00,69.3,67.3,30.06,SW,225,8.3,8.3,94,0.00,,,0.00,VWS V14.01,2013-06-16 02:19:00,
2013-06-15 21:24:00,69.1,67.1,30.06,South,180,6.7,6.7,94,0.00,,,0.00,VWS V14.01,2013-06-16 02:24:00,
2013-06-15 21:29:00,69.3,67.3,30.03,SW,225,7.6,7.6,94,0.00,,,0.00,VWS V14.01,2013-06-16 02:29:00,
2013-06-15 21:34:00,69.4,67.5,30.03,South,180,4.0,4.5,94,0.00,,,0.00,VWS V14.01,2013-06-16 02:34:00,
2013-06-15 21:39:00,69.6,67.7,30.03,SSW,202,4.9,5.4,94,0.00,,,0.00,VWS V14.01,2013-06-16 02:39:00,
2013-06-15 21:44:00,69.8,67.5,30.03,South,180,8.7,8.7,92,0.00,,,0.00,VWS V14.01,2013-06-16 02:44:00,
2013-06-15 21:49:00,69.8,67.5,30.03,SSW,202,2.7,4.0,92,0.00,,,0.00,VWS V14.01,2013-06-16 02:49:00,
2013-06-15 21:54:00,69.8,67.5,30.03,SW,225,4.9,4.9,92,0.00,,,0.00,VWS V14.01,2013-06-16 02:54:00,
2013-06-15 21:59:00,70.0,67.7,30.06,West,270,6.3,6.7,92,0.00,,,0.00,VWS V14.01,2013-06-16 02:59:00,
2013-06-15 22:04:00,70.0,67.7,30.06,SW,225,4.5,7.6,92,0.00,,,0.00,VWS V14.01,2013-06-16 03:04:00,
2013-06-15 22:09:00,70.2,67.9,30.06,SW,225,4.0,4.0,92,0.00,,,0.00,VWS V14.01,2013-06-16 03:09:00,
2013-06-15 22:14:00,70.2,67.9,30.06,WSW,248,5.8,5.8,92,0.00,,,0.00,VWS V14.01,2013-06-16 03:14:00,
2013-06-15 22:19:00,70.2,67.9,30.06,NW,315,0.0,3.1,92,0.00,,,0.00,VWS V14.01,2013-06-16 03:19:00,
2013-06-15 22:24:00,70.3,67.8,30.06,NW,315,0.0,5.4,92,0.00,,,0.00,VWS V14.01,2013-06-16 03:24:00,
2013-06-15 22:29:00,70.7,68.1,30.09,NW,315,5.8,5.8,92,0.00,,,0.00,VWS V14.01,2013-06-16 03:29:00,
2013-06-15 22:33:00,71.2,68.6,30.09,NW,315,7.2,7.2,92,0.00,,,0.00,VWS V14.01,2013-06-16 03:33:00,
2013-06-15 22:38:00,71.4,68.8,30.09,NW,315,3.6,3.6,92,0.00,,,0.00,VWS V14.01,2013-06-16 03:38:00,
2013-06-15 22:43:00,71.8,68.9,30.12,WNW,292,3.6,11.0,90,0.00,,,0.00,VWS V14.01,2013-06-16 03:43:00,
2013-06-15 22:48:00,71.8,68.9,30.12,NW,315,4.0,6.3,90,0.00,,,0.00,VWS V14.01,2013-06-16 03:48:00,
2013-06-15 22:53:00,72.0,69.0,30.12,NW,315,3.6,3.6,90,0.00,,,0.00,VWS V14.01,2013-06-16 03:53:00,
2013-06-15 22:58:00,72.1,68.9,30.09,SW,225,7.6,7.6,90,0.00,,,0.00,VWS V14.01,2013-06-16 03:58:00,
2013-06-15 23:01:00,72.5,69.2,30.09,West,270,5.8,7.6,90,0.00,,,0.00,VWS V14.01,2013-06-16 04:01:00,
2013-06-15 23:06:00,72.7,69.4,30.09,SW,225,5.8,5.8,90,0.00,,,0.00,VWS V14.01,2013-06-16 04:06:00,
2013-06-15 23:11:00,73.0,69.8,30.09,SW,225,5.8,5.8,90,0.00,,,0.00,VWS V14.01,2013-06-16 04:11:00,
2013-06-15 23:16:00,73.2,69.9,30.09,SW,225,7.6,8.3,90,0.00,,,0.00,VWS V14.01,2013-06-16 04:16:00,
2013-06-15 23:21:00,73.4,69.8,30.09,SW,225,9.6,9.6,88,0.00,,,0.00,VWS V14.01,2013-06-16 04:21:00,
2013-06-15 23:26:00,73.6,70.0,30.09,SW,225,9.6,11.9,88,0.00,,,0.00,VWS V14.01,2013-06-16 04:26:00,
2013-06-15 23:31:00,73.6,70.0,30.09,WSW,248,6.3,6.3,88,0.00,,,0.00,VWS V14.01,2013-06-16 04:31:00,
2013-06-15 23:36:00,73.8,70.2,30.09,West,270,8.1,8.1,88,0.00,,,0.00,VWS V14.01,2013-06-16 04:36:00,
2013-06-15 23:41:00,73.8,70.2,30.09,WSW,248,10.1,10.1,88,0.00,,,0.00,VWS V14.01,2013-06-16 04:41:00,
2013-06-15 23:46:00,73.9,70.3,30.06,SW,225,6.3,7.6,88,0.00,,,0.00,VWS V14.01,2013-06-16 04:46:00,
2013-06-15 23:51:00,73.9,70.3,30.06,West,270,3.6,7.2,88,0.00,,,0.00,VWS V14.01,2013-06-16 04:51:00,
2013-06-15 23:56:00,74.1,70.5,30.06,SW,225,6.7,6.7,88,0.00,,,0.00,VWS V14.01,2013-06-16 04:56:00,